Location: �terpigny
(49.8910°N, 2.9249°E)
Time: 11:05:01
(UTC+00:00)

SL-8 R/B - Pass Details

Date: 24 October 2021
Orbit: 656 x 667 km, 48.4° (Epoch: 30 November)

Event Time Altitude Azimuth Distance (km) Brightness Sun altitude
Rises 17:45:35 0° 252° (WSW) 2,979 8.9 -11.3°
Reaches altitude 10° 17:47:55 10° 250° (WSW) 2,070 7.6 -11.6°
Maximum altitude 17:52:40 68° 169° (SSE) 714 3.8 -12.4°
Enters shadow 17:56:01 19° 90° (E) 1,551 4.9 -12.9°
